Weather History for KCMA - November, 2013

Change the Weather History Date:

Sunday, November 3, 2013

  Actual Average Record
Temperature  
Mean Temperature 57 °F 61 °F  
Max Temperature 68 °F 72 °F 97 °F (2010)
Min Temperature 45 °F 50 °F 39 °F (1961)
Degree Days  
Heating Degree Days 8 5  
Month to date heating degree days 12 15  
Since 1 July heating degree days 122 138  
Cooling Degree Days 0 1  
Month to date cooling degree days 0 3  
Year to date cooling degree days 623 319  
Growing Degree Days 6 (Base 50)    
Moisture  
Dew Point 50 °F    
Average Humidity 76    
Maximum Humidity 93    
Minimum Humidity 58    
Precipitation  
Precipitation 0.00 in 0.05 in 0.50 in (1960)
Month to date precipitation 0.00 0.16  
Year to date precipitation 2.19 12.01  
Since 1 July precipitation 0.04 1.03  
Sea Level Pressure  
Sea Level Pressure 29.89 in    
Wind  
Wind Speed 3 mph (SSW)    
Max Wind Speed 12 mph    
Max Gust Speed 14 mph    
Visibility 9 miles    
Events      
T = Trace of Precipitation, MM = Missing Value Source: NWS Daily Summary

Daily Weather History Graph

Daily Weather History Graph

Search for Another Location

Airport or City:

Trip Planner

Search our weather history database for the weather conditions in past years. The results will help you decide how hot, cold, wet, or windy it might be!

Date:

Astronomy

Nov. 03, 2013 Rise Set
Actual Time 6:18 AM PST 5:01 PM PST
Civil Twilight 5:52 AM PST 5:27 PM PST
Nautical Twilight 5:22 AM PST 5:56 PM PST
Astronomical Twilight 4:53 AM PST 6:26 PM PST
Moon 6:26 AM PST (11/3) 5:21 PM PST (11/3)
Length of Visible Light 11h 34m
Length of Day
10h 42m
New Moon, 0% of the Moon is Illuminated
Nov 3
New Moon
Nov 9
First Quarter
Nov 17
Full
Nov 25
Last Quarter
Dec 2
New

Hourly Weather History & Observations

Time (PST) Temp. Dew Point Humidity Pressure Visibility Wind Dir Wind Speed Gust Speed Precip Events Conditions
12:10 AM 51.8 °F 51.8 °F 100% 29.90 in 2.0 mi Calm Calm - N/A   Overcast
12:17 AM 53.6 °F 51.8 °F 94% 29.89 in 6.0 mi NE 3.5 mph - N/A   Overcast
12:50 AM 53.6 °F 48.2 °F 82% 29.89 in 10.0 mi ENE 4.6 mph - N/A   Overcast
12:55 AM 54.0 °F 48.9 °F 83% 29.92 in 10.0 mi NE 4.6 mph - N/A   Overcast
1:20 AM 53.6 °F 48.2 °F 82% 29.90 in 9.0 mi NE 3.5 mph - N/A   Overcast
1:55 AM 52.0 °F 46.9 °F 83% 29.93 in 10.0 mi East 3.5 mph - N/A   Overcast
1:55 AM 52.0 °F 46.0 °F 80% 29.92 in 10.0 mi ENE 3.5 mph - N/A   Mostly Cloudy
2:02 AM 51.8 °F 44.6 °F 76% 29.89 in 10.0 mi East 5.8 mph - N/A   Scattered Clouds
2:55 AM 48.9 °F 45.0 °F 86% 29.90 in 10.0 mi Calm Calm - N/A   Clear
3:55 AM 48.0 °F 43.0 °F 83% 29.90 in 10.0 mi Calm Calm - N/A   Clear
4:55 AM 46.0 °F 42.1 °F 86% 29.91 in 10.0 mi Calm Calm - N/A   Clear
5:55 AM 46.0 °F 41.0 °F 83% 29.93 in 10.0 mi Calm Calm - N/A   Clear
6:55 AM 48.0 °F 43.0 °F 83% 29.93 in 7.0 mi Calm Calm - N/A   Clear
7:55 AM 55.0 °F 46.9 °F 74% 29.94 in 5.0 mi Calm Calm - N/A   Haze
8:55 AM 62.1 °F 51.1 °F 67% 29.94 in 7.0 mi Calm Calm - N/A   Clear
9:55 AM 64.0 °F 51.1 °F 63% 29.94 in 8.0 mi SSW 3.5 mph - N/A   Clear
10:55 AM 66.9 °F 52.0 °F 59% 29.93 in 9.0 mi SW 6.9 mph - N/A   Partly Cloudy
11:55 AM 66.0 °F 53.1 °F 63% 29.92 in 10.0 mi SSW 8.1 mph - N/A   Partly Cloudy
12:55 PM 66.0 °F 54.0 °F 65% 29.88 in 10.0 mi SSW 6.9 mph - N/A   Scattered Clouds
1:55 PM 66.9 °F 54.0 °F 63% 29.87 in 10.0 mi SW 8.1 mph - N/A   Partly Cloudy
2:55 PM 66.0 °F 54.0 °F 65% 29.86 in 10.0 mi SW 6.9 mph - N/A   Scattered Clouds
3:05 PM 64.4 °F 53.6 °F 68% 29.84 in 10.0 mi SW 6.9 mph - N/A   Mostly Cloudy
3:55 PM 64.9 °F 53.1 °F 65% 29.86 in 10.0 mi SW 8.1 mph - N/A   Mostly Cloudy
4:05 PM 64.4 °F 53.6 °F 68% 29.83 in 10.0 mi SW 5.8 mph - N/A   Scattered Clouds
4:55 PM 62.1 °F 52.0 °F 70% 29.86 in 10.0 mi WSW 5.8 mph - N/A   Clear
5:55 PM 60.1 °F 52.0 °F 75% 29.87 in 10.0 mi West 3.5 mph - N/A   Clear
6:55 PM 59.0 °F 53.1 °F 81% 29.88 in 9.0 mi Calm Calm - N/A   Clear
7:55 PM 57.0 °F 53.1 °F 87% 29.86 in 8.0 mi SE 4.6 mph - N/A   Clear
8:55 PM 54.0 °F 51.1 °F 90% 29.87 in 8.0 mi WNW 4.6 mph - N/A   Clear
9:55 PM 55.9 °F 51.1 °F 84% 29.87 in 9.0 mi Calm Calm - N/A   Partly Cloudy
10:07 PM 57.2 °F 51.8 °F 82% 29.84 in 9.0 mi Calm Calm - N/A   Mostly Cloudy
10:55 PM 57.0 °F 52.0 °F 83% 29.87 in 9.0 mi Calm Calm - N/A   Overcast